Terminal Aerodrome Forecast
Issued by NWS

Home | Current Version | Previous Version | Graphics & Text | Print | Product List | Glossary On
Versions: 1 2 3 4 5 6 7 8 9 10 11 12 13 14 15 16
879
FTUS43 KMPX 090950 AAB
TAFAXN
TAF AMD
KAXN 090950Z 0910/1006 34015KT P6SM SCT015
      TEMPO 0910/0911 BKN015
     FM091200 34013KT P6SM SKC
     FM100000 33009KT P6SM SCT250=

USA.gov is the U.S. government's official web portal to all federal, state and local government web resources and services.